Voltar ao catálogo

ONEWEB-0182

AtivoComunicaçõesPO
NORAD 48228·PAYLOAD·🇬🇧 United Kingdom

Lançado Apr 25, 2021 de Vostochny Cosmodrome

Loading…

Próximas Passagens (próximas 24 horas)

TLE

AtualizadoSource: CelesTrak SupGP

Época: Sep 14, 2026, 13:33 UTC

1 48228C 21031U   26257.56511991 -.00000908  00000+0 -24516-2 0  2575
2 48228  87.8900 271.8809 0002033  96.9090   5.2794 13.14506004    16

Acompanhe ONEWEB-0182 em tempo real com AllMySat

Download on the App Store